[[{"header":{"parameterUnit":"m.s-1","parameterCategory":1,"la1":30.2991,"la2":30.254,"lo1":-89.0895,"lo2":-89.0444,"dy":0.0017,"dx":0.0017,"nx":28,"ny":28,"refTime":"2025-08-10T03:00:00:Z","depth":0,"parameterNumber":2,"parameterNumberName":"U-component_of_WINDS"},"data":[0,0,0,0,0,0,0,0,0,0,0,0,0,0,0,0,0,0,0,0,0,0,0,0,0,0,0,0,0,0,0,0,0,0,0,0,0,0,0,0,0,0,0,0,0,0,0,0,0,0,0,0,0,0,0,0,0,0,-1.1426,-1.1426,0,-1.1479,-1.1479,-1.148,-1.146,-1.1458,-1.1457,-1.1456,-1.1513,-1.1515,-1.1518,0,0,0,0,0,0,0,0,0,0,0,0,0,-1.131,-1.1312,-1.1426,-1.1426,-1.1427,-1.1478,-1.1479,-1.148,-1.146,-1.1458,-1.1457,-1.1455,-1.1512,-1.1515,-1.1518,0,0,0,0,0,0,0,0,0,0,0,0,0,-1.1361,-1.1313,-1.1426,-1.1423,-1.1423,-1.1478,-1.1479,-1.148,-1.146,-1.1458,-1.1456,-1.1455,-1.1511,-1.1515,-1.1519,-1.158,0,0,-1.1531,-1.1533,0,0,0,0,0,0,0,0,-1.1358,-1.1366,-1.1423,-1.1423,-1.1424,-1.1461,-1.1459,-1.1514,-1.1461,-1.1446,-1.1456,-1.1454,-1.1497,-1.1502,-1.1516,-1.1583,-1.1585,-1.1531,-1.1534,-1.1535,-1.1537,0,0,0,0,0,0,0,-1.1355,-1.1363,-1.1447,-1.1424,-1.1424,-1.142,-1.1426,-1.1469,-1.1481,-1.1447,-1.1446,-1.1452,-1.1497,-1.1512,-1.1517,-1.1586,-1.1531,-1.1535,-1.1537,-1.1539,-1.1706,-1.1708,0,0,0,0,0,0,-1.1351,-1.136,-1.1445,-1.1448,-1.1386,-1.1424,-1.143,-1.1451,-1.1481,-1.1484,-1.1454,-1.1451,-1.1506,-1.1513,-1.1519,-1.1593,-1.1535,-1.1539,-1.1541,-1.1704,-1.1706,-1.1709,0,0,0,0,0,0,-1.1348,-1.1359,-1.1443,-1.1404,-1.1414,-1.1428,-1.1451,-1.1453,-1.1468,-1.1486,-1.1488,-1.1467,-1.1505,-1.1514,-1.1565,-1.1595,-1.1541,-1.1545,-1.1702,-1.1705,-1.1708,-1.1741,0,0,0,0,0,0,-1.1345,-1.1358,-1.1381,-1.1405,-1.1417,-1.1487,-1.1453,-1.1455,-1.1474,-1.1472,-1.1499,-1.1502,-1.1505,-1.1559,-1.1569,-1.1599,-1.1548,-1.1699,-1.1703,-1.1707,-1.1738,-1.1745,-1.1752,0,0,0,0,0,-1.1341,-1.1389,-1.1382,-1.1392,-1.1445,-1.1489,-1.1496,-1.1497,-1.1477,-1.15,-1.1512,-1.1501,-1.159,-1.1565,-1.1575,-1.1608,-1.1697,-1.1702,-1.1706,-1.1735,-1.1744,-1.1752,0,0,0,0,0,0,-1.1369,-1.1392,-1.1384,-1.1441,-1.1463,-1.1485,-1.1515,-1.1507,-1.1536,-1.1532,-1.1533,-1.154,-1.1593,-1.1605,-1.1576,-1.1669,-1.1641,-1.1648,-1.1658,-1.1667,-1.1674,-1.167,-1.1551,0,0,0,0,0,-1.1381,-1.1414,-1.1432,-1.1481,-1.1492,-1.1501,-1.1521,-1.152,-1.1543,-1.1552,-1.1568,-1.1591,-1.1625,-1.1647,-1.1678,-1.1739,-1.1745,-1.1767,-1.1774,-1.178,-1.1786,-1.1819,-1.1829,-1.1724,-1.1724,-1.1724,0,0,-1.1408,-1.1424,-1.1445,-1.1486,-1.1503,-1.1538,-1.1509,-1.1547,-1.1573,-1.1558,-1.1607,-1.162,-1.1646,-1.1703,-1.1728,-1.1715,-1.1816,-1.1786,-1.179,-1.1793,-1.1825,-1.1835,-1.1844,-1.1727,-1.1726,-1.1726,0,0,-1.1473,-1.1489,-1.1531,-1.1548,-1.1574,-1.158,-1.159,-1.1614,-1.1621,-1.167,-1.166,-1.1691,-1.1748,-1.1768,-1.1785,-1.1858,-1.185,-1.1869,-1.1906,-1.1938,-1.1947,-1.1954,-1.1981,-1.199,-1.1875,-1.1875,-1.1875,0,-1.1503,-1.1554,-1.1554,-1.1592,-1.1611,-1.1598,-1.1641,-1.1658,-1.1694,-1.1707,-1.1691,-1.1763,-1.178,-1.1841,-1.1859,-1.1873,-1.1886,-1.1866,-1.1945,-1.1953,-1.196,-1.1985,-1.1995,-1.1877,-1.1877,-1.1877,-1.1876,0,-1.159,-1.1625,-1.1656,-1.1689,-1.1712,-1.1752,-1.1759,-1.1782,-1.1779,-1.1787,-1.1838,-1.1857,-1.1893,-1.1907,-1.1906,-1.1968,-1.1959,-1.1945,-1.1916,-1.1972,-1.1996,-1.2006,-1.188,-1.188,-1.1879,-1.1878,0,0,-1.1675,-1.1707,-1.1718,-1.1733,-1.1761,-1.1788,-1.1829,-1.1863,-1.1882,-1.1907,-1.1941,-1.199,-1.1977,-1.1996,-1.1997,-1.2025,-1.2083,-1.2007,-1.2008,-1.2021,-1.2154,-1.2165,-1.2176,-1.2077,-1.2078,-1.208,-1.2151,0,-1.1743,-1.1812,-1.1813,-1.1878,-1.1911,-1.1899,-1.1934,-1.1955,-1.1964,-1.1994,-1.2004,-1.2039,-1.2018,-1.203,-1.2058,-1.207,-1.2109,-1.2065,-1.2109,-1.2111,-1.2103,-1.2188,-1.22,-1.2267,-1.2161,-1.2162,-1.2163,0,-1.1832,-1.1858,-1.1926,-1.1948,-1.1962,-1.1994,-1.2025,-1.2053,-1.2077,-1.2082,-1.2104,-1.21,-1.2142,-1.2112,-1.217,-1.214,-1.2158,-1.2167,-1.217,-1.2174,-1.2141,-1.2196,-1.2288,-1.2298,-1.2178,-1.2177,-1.2176,0,-1.1887,-1.194,-1.1987,-1.2,-1.2028,-1.205,-1.2063,-1.2085,-1.2105,-1.2133,-1.2146,-1.2179,-1.2197,-1.2223,-1.2228,-1.2206,-1.2287,-1.2257,-1.2292,-1.2292,-1.231,-1.2309,-1.2407,-1.2321,-1.2321,-1.2321,-1.2321,0,-1.1963,-1.2005,-1.2012,-1.2041,-1.2088,-1.2089,-1.2136,-1.2147,-1.2166,-1.2198,-1.2191,-1.2221,-1.2225,-1.2257,-1.2261,-1.2309,-1.2318,-1.2323,-1.2324,-1.2324,-1.2323,-1.2336,-1.2332,-1.2324,-1.2323,-1.2322,-1.2322,0,-1.2033,-1.204,-1.209,-1.2112,-1.2119,-1.2152,-1.2171,-1.2199,-1.2207,-1.2247,-1.2257,-1.2269,-1.2306,-1.2314,-1.2357,-1.236,-1.2417,-1.2413,-1.2409,-1.2409,-1.2443,-1.244,-1.2554,-1.2569,-1.2473,-1.2474,-1.2475,0,-1.2082,-1.2113,-1.2138,-1.2158,-1.2172,-1.2205,-1.2225,-1.2228,-1.225,-1.2279,-1.2304,-1.234,-1.2368,-1.2428,-1.2441,-1.2475,-1.2472,-1.2509,-1.2477,-1.2476,-1.2473,-1.2471,-1.2475,-1.2516,-1.2517,-1.2518,-1.2518,0,-1.2167,-1.2168,-1.2198,-1.2228,-1.2253,-1.2278,-1.2301,-1.2318,-1.2324,-1.2349,-1.2386,-1.2408,-1.2452,-1.2488,-1.2522,-1.2536,-1.2529,-1.2528,-1.2538,-1.2539,-1.2535,-1.2538,-1.2426,-1.2526,-1.2525,-1.2525,-1.2524,-1.2524,-1.2228,-1.2256,-1.2277,-1.231,-1.2328,-1.235,-1.2378,-1.2388,-1.2419,-1.2455,-1.2454,-1.2495,-1.2519,-1.2563,-1.2579,-1.2611,-1.26,-1.2614,-1.2618,-1.2621,-1.2625,-1.253,-1.2617,-1.2617,-1.2617,-1.2617,-1.2617,0,-1.2313,-1.2326,-1.2357,-1.2389,-1.2415,-1.2405,-1.2431,-1.2454,-1.2489,-1.2511,-1.2539,-1.2582,-1.2617,-1.2633,-1.2667,-1.269,-1.2688,-1.2699,-1.2698,-1.2701,-1.2633,-1.2621,-1.2701,-1.2701,-1.2701,-1.2701,-1.2701,-1.27,-1.236,-1.2407,-1.2411,-1.2467,-1.248,-1.2519,-1.2534,-1.2555,-1.2572,-1.262,-1.2649,-1.2658,-1.2679,-1.2714,-1.2746,-1.275,-1.2763,-1.2776,-1.2779,-1.2715,-1.2706,-1.2698,-1.2687,-1.2779,-1.2779,-1.2845,-1.2845,-1.2846]},{"header":{"parameterUnit":"m.s-1","parameterCategory":1,"la1":30.2991,"la2":30.254,"lo1":-89.0895,"lo2":-89.0444,"dy":0.0017,"dx":0.0017,"nx":28,"ny":28,"refTime":"2025-08-10T03:00:00:Z","depth":0,"parameterNumber":3,"parameterNumberName":"V-component_of_WINDS"},"data":[0,0,0,0,0,0,0,0,0,0,0,0,0,0,0,0,0,0,0,0,0,0,0,0,0,0,0,0,0,0,0,0,0,0,0,0,0,0,0,0,0,0,0,0,0,0,0,0,0,0,0,0,0,0,0,0,0,0,0.8389,0.8389,0,0.839,0.839,0.839,0.832,0.8318,0.8316,0.8314,0.8317,0.8319,0.8321,0,0,0,0,0,0,0,0,0,0,0,0,0,0.8325,0.8327,0.8389,0.8389,0.8389,0.839,0.839,0.839,0.832,0.8318,0.8315,0.8313,0.8316,0.8319,0.8321,0,0,0,0,0,0,0,0,0,0,0,0,0,0.8342,0.8327,0.8389,0.8354,0.8351,0.839,0.839,0.839,0.832,0.8318,0.8315,0.8312,0.8316,0.8318,0.8321,0.8395,0,0,0.8329,0.8331,0,0,0,0,0,0,0,0,0.8342,0.8345,0.8359,0.8356,0.8353,0.8352,0.8369,0.8392,0.8321,0.8332,0.8314,0.8311,0.8331,0.8332,0.8339,0.8395,0.8395,0.833,0.8331,0.8333,0.8333,0,0,0,0,0,0,0,0.834,0.8344,0.8389,0.8359,0.8355,0.8338,0.8337,0.8373,0.8347,0.8331,0.8326,0.8327,0.8329,0.8336,0.8338,0.8395,0.833,0.8332,0.8334,0.8335,0.8509,0.8512,0,0,0,0,0,0,0.8344,0.8344,0.8389,0.8389,0.834,0.8342,0.8341,0.8355,0.8347,0.8343,0.8329,0.8323,0.8333,0.8335,0.8338,0.8422,0.8333,0.8335,0.8337,0.8506,0.851,0.8513,0,0,0,0,0,0,0.8343,0.8349,0.8389,0.8365,0.8369,0.8346,0.8362,0.8357,0.8364,0.8345,0.8341,0.8342,0.8331,0.8334,0.8381,0.8422,0.8336,0.8339,0.8503,0.8508,0.8512,0.8592,0,0,0,0,0,0,0.8341,0.8349,0.8376,0.8366,0.8371,0.8432,0.8365,0.8359,0.8369,0.8361,0.8356,0.8352,0.8329,0.8377,0.8383,0.8424,0.8341,0.8499,0.8505,0.851,0.8586,0.8599,0.861,0,0,0,0,0,0.8339,0.84,0.8378,0.8384,0.8405,0.8434,0.8437,0.8408,0.8372,0.84,0.8388,0.8352,0.8416,0.8382,0.8389,0.8431,0.8496,0.8503,0.851,0.8581,0.8597,0.861,0,0,0,0,0,0,0.8416,0.8398,0.8374,0.8433,0.8436,0.8422,0.8456,0.8426,0.844,0.8432,0.8397,0.8396,0.8448,0.8444,0.8407,0.8501,0.845,0.8458,0.8501,0.8516,0.8528,0.8528,0.8343,0,0,0,0,0,0.844,0.8465,0.8448,0.8502,0.8504,0.848,0.8492,0.847,0.8471,0.8472,0.8464,0.8467,0.8487,0.8502,0.852,0.8585,0.8582,0.8617,0.8629,0.864,0.8647,0.868,0.8695,0.8535,0.8535,0.8535,0,0,0.849,0.8483,0.8501,0.8517,0.8516,0.8543,0.8482,0.8513,0.8532,0.8477,0.852,0.8514,0.8515,0.8571,0.8595,0.8569,0.869,0.8648,0.8656,0.8658,0.8688,0.8704,0.8717,0.854,0.8539,0.8538,0,0,0.8593,0.8591,0.8634,0.8635,0.8634,0.8618,0.8629,0.862,0.8613,0.8655,0.8614,0.8636,0.8673,0.8675,0.8681,0.8784,0.8752,0.8791,0.8854,0.8887,0.89,0.891,0.8946,0.896,0.8799,0.8799,0.8799,0,0.8655,0.8693,0.8661,0.8694,0.8702,0.8653,0.8696,0.8699,0.8705,0.8711,0.8682,0.8726,0.8723,0.8778,0.8803,0.881,0.882,0.8791,0.89,0.8911,0.8921,0.8954,0.8968,0.8804,0.8803,0.8803,0.8802,0,0.8768,0.8796,0.8831,0.8837,0.8849,0.8887,0.8861,0.8877,0.8853,0.884,0.8883,0.8878,0.8893,0.8905,0.8883,0.8956,0.894,0.8906,0.8854,0.8941,0.8972,0.8985,0.881,0.8809,0.8807,0.8806,0,0,0.8921,0.8907,0.8921,0.8922,0.8917,0.8938,0.8974,0.8988,0.9002,0.9008,0.9037,0.9068,0.9036,0.9043,0.9021,0.9049,0.913,0.9012,0.9011,0.9033,0.9209,0.9234,0.925,0.9108,0.9111,0.9113,0.9209,0,0.9021,0.9081,0.9052,0.9116,0.914,0.9092,0.9123,0.9124,0.9112,0.9131,0.9118,0.914,0.9097,0.9101,0.9127,0.9115,0.9165,0.9107,0.9135,0.9136,0.9135,0.9266,0.9293,0.9384,0.9221,0.9223,0.9224,0,0.9145,0.9154,0.922,0.9209,0.9218,0.9247,0.9257,0.9276,0.9275,0.9264,0.9271,0.9242,0.9276,0.9225,0.9271,0.9233,0.9243,0.9238,0.9241,0.9242,0.9185,0.927,0.9412,0.9426,0.9243,0.9242,0.9241,0,0.9248,0.9277,0.932,0.9323,0.9312,0.9333,0.9329,0.9326,0.9336,0.9345,0.935,0.9364,0.9371,0.9382,0.9357,0.9322,0.9407,0.9354,0.9398,0.9399,0.9418,0.9417,0.9563,0.9426,0.9426,0.9425,0.9425,0,0.9362,0.9404,0.9366,0.9392,0.9437,0.9404,0.9449,0.9441,0.9438,0.9461,0.9422,0.9445,0.941,0.943,0.9411,0.9452,0.9456,0.9448,0.9442,0.9451,0.9452,0.9456,0.9449,0.9429,0.9428,0.9427,0.9427,0,0.9485,0.9461,0.9504,0.949,0.9487,0.9521,0.9509,0.9532,0.9517,0.9547,0.9552,0.9529,0.955,0.9526,0.9546,0.9532,0.9587,0.9573,0.9587,0.9583,0.9628,0.9624,0.9782,0.9801,0.9652,0.9654,0.9655,0,0.9558,0.9589,0.9578,0.959,0.9588,0.9609,0.9619,0.9587,0.9599,0.9599,0.9623,0.964,0.9652,0.9688,0.9673,0.9687,0.9672,0.9726,0.9674,0.9681,0.9672,0.967,0.9672,0.9737,0.9739,0.974,0.9741,0,0.9691,0.9678,0.9692,0.9703,0.9715,0.9722,0.9726,0.9739,0.9706,0.9721,0.9741,0.9751,0.9769,0.9787,0.9797,0.9793,0.9762,0.9758,0.9769,0.9778,0.9785,0.978,0.9615,0.9754,0.9753,0.9752,0.9751,0.9751,0.9791,0.9815,0.9811,0.9828,0.9827,0.9832,0.9853,0.984,0.9856,0.9868,0.9849,0.9874,0.9871,0.9881,0.9881,0.9901,0.9877,0.9894,0.9897,0.9902,0.9908,0.9782,0.9903,0.9902,0.9902,0.9901,0.9901,0,0.9921,0.9915,0.9931,0.9937,0.9951,0.9919,0.9922,0.9936,0.9958,0.9958,0.997,0.9993,1.001,0.9996,1.0009,1.0028,1.0013,1.0032,1.003,1.003,0.9929,0.9917,1.0043,1.0043,1.0043,1.0043,1.0043,1.0043,0.999,1.0029,1.0015,1.0053,1.0047,1.007,1.0075,1.0078,1.0078,1.0105,1.0118,1.0108,1.0103,1.0115,1.0129,1.0124,1.0131,1.0155,1.0145,1.0051,1.0037,1.0024,1.0013,1.0157,1.0157,1.0244,1.0245,1.0245]}]]